SL-8 R/B

Satellite information

Favourite Embed

Satellite Type and Status

ROCKET BODYIN ORBIT

Key statistics

Satellite SL-8 R/B at a glance.

Uptime

14713

Days in orbit

Revolutions

≈ 14.4

Per day

Orbit

LEO

Low Earth Orbit

Inclination

74.1

Latest

Satellite identification and parameters

Extended collection of information and parameters for SL-8 R/B.

Object identification

Identified? True

Debris? False

Object name: SL-8 R/B

International designator: 1985-079B

Object number (NORAD): 16012

Object ID (CCSDS): 16012

Country: COMMONWEALTH OF INDEPENDENT STATES (CIS)

Current information (Y/N): Y

RCS size: LARGE

Orbital parameters

Period: 100.161 minutes

Inclination: 74.0568 deg

SMA: 7144.282 km

Apoapsis: 776.194 km

Periapsis: 756.1 km

RAAN: 199.549 deg

Eccentricy: 0.0014063

Argument of periapsis: 44.199 deg

Mean anomaly: 316.0284 deg

Mean motion: 14.37688887 rev/day

Mean motion (dot): 0.00000257 rev/day2

B* drag term: 0.000094090101 1/REarth

Two-line elements (TLE)

Creation date: Dec. 16, 2025, 2:19 a.m.

Reference frame: TEME

Reference center: EARTH

Epoch: Dec. 15, 2025, 10:50 p.m. UTC

TLE line 0: 0 SL-8 R/B

TLE line 1: 1 16012U 85079B 25349.95166116 .00000257 00000-0 94090-4 0 9997

TLE line 2: 2 16012 74.0568 199.5490 0014063 44.1990 316.0284 14.37688887109228

Live tracking on map

Real-time ground track for satellite SL-8 R/B.

In-orbit conjunctions

A list of the most updated potential collisions computed for object SL-8 R/B.

Target Orbit TCA Probability of collision Miss distance Type
CZ-6A DEB SSO 2025-12-14 10:38:31 0.0001251087 743.0 (m) DEBRIS
DELTA 1 DEB SSO 2025-11-15 07:32:37 0.0001324406 341.0 (m) DEBRIS
COSMOS 1408 DEB LEO 2025-08-04 20:20:25 0.0002543157 191.0 (m) DEBRIS
FENGYUN 1C DEB SSO 2024-07-19 03:09:43 0.0004590619 170.0 (m) DEBRIS

Associated space launch

Military communications satellite

SL-8 R/B was lifted into orbit during the mission ‘Kosmos-3M | Strela-2M 37’, on board a Kosmos-3M space rocket.

The launch took place on Sept. 4, 1985, 7:05 a.m. from 132/1 (132L).

For more information about the launch, click the button.

Launch to space Kosmos-3M | Strela-2M 37
Kosmos-3M | Strela-2M 37

Agency: N/A

Status: Launch Successful

Launch date: Sept. 4, 1985, 7:05 a.m. UTC

Rocket: Kosmos-3M

Launch pad: 132/1 (132L)

Location: Plesetsk Cosmodrome, Russian Federation

...

Latest news about this satellite

There are no fresh news available about this satellite. Check back as we update our databases every day.


Newsletter sign-up

Weekly statistics, charts and insights to help you stay on top of the space industry.